Wyoming Park, Ohio, United States
Lat: 39.24N, Lon: 84.46W
Wx Zone: OHZ077
Local Info
Past Weather Observations for Today

NOTE: This archive is for the closest National Weather Service station to Wyoming Park. Information may differ from the station used for current weather conditions.

Click here for Long-term Archive

Time Weather Temperature Dewpoint Humidity Pressure Winds Precip Visibility
20:53
Clear
55°F / 13°C 48°F / 9°C 77% 29.89 in
(1012 mb)
Calm - 10SM
19:53
Clear
57°F / 14°C 48°F / 9°C 72% 29.89 in
(1012 mb)
Calm - 10SM
18:53
Clear
63°F / 17°C 48°F / 9°C 59% 29.86 in
(1011 mb)
Calm - 10SM
17:53
Partly Cloudy
72°F / 22°C 46°F / 8°C 41% 29.86 in
(1011 mb)
SW 5.8 mph
(SW 9 kph)
- 10SM
16:53
Partly Cloudy
73°F / 23°C 45°F / 7°C 36% 29.86 in
(1011 mb)
SW 10.4 mph
(SW 17 kph)
- 10SM
15:53
Clear
75°F / 24°C 45°F / 7°C 34% 29.86 in
(1011 mb)
SW 10.4 mph
(SW 17 kph)
- 10SM
14:53
Clear
75°F / 24°C 45°F / 7°C 34% 29.89 in
(1012 mb)
SSW 12.7 mph
(SSW 20 kph)
- 10SM
13:53
Clear
75°F / 24°C 45°F / 7°C 34% 29.89 in
(1012 mb)
SW 12.7 mph
(SW 20 kph)
- 10SM
12:53
Clear
73°F / 23°C 45°F / 7°C 36% 29.92 in
(1013 mb)
SW 15 mph
(SW 24 kph)
- 10SM
11:53
Clear
72°F / 22°C 45°F / 7°C 38% 29.95 in
(1014 mb)
SSW 13.8 mph
(SSW 22 kph)
- 10SM
10:53
Clear
70°F / 21°C 46°F / 8°C 43% 29.98 in
(1015 mb)
SSW 8.1 mph
(SSW 13 kph)
- 10SM
09:53
Clear
64°F / 18°C 48°F / 9°C 56% 30.01 in
(1016 mb)
SSW 9.2 mph
(SSW 15 kph)
- 10SM
08:53
Clear
59°F / 15°C 50°F / 10°C 72% 30.01 in
(1016 mb)
SSW 4.6 mph
(SSW 7 kph)
- 10SM
07:53
Clear
54°F / 12°C 52°F / 11°C 94% 30.01 in
(1016 mb)
Calm - 8SM
07:00
Clear
45°F / 7°C 43°F / 6°C 93% 30.01 in
(1016 mb)
Calm - 7SM
06:53
Clear
Fog And Mist
43°F / 6°C 41°F / 5°C 93% 30.01 in
(1016 mb)
Calm - 2SM
06:45
Clear
Fog And Mist
43°F / 6°C 41°F / 5°C 93% 30.01 in
(1016 mb)
Calm - 1 1/2SM
06:34
Clear
Fog And Mist
43°F / 6°C 41°F / 5°C 93% 30.01 in
(1016 mb)
Calm - 6SM
06:27
Clear
Fog And Mist
43°F / 6°C 41°F / 5°C 93% 30.01 in
(1016 mb)
Calm - 2SM
06:23
Clear
Fog And Mist
43°F / 6°C 41°F / 5°C 93% 30.01 in
(1016 mb)
Calm - 3/4SM
06:01
Clear
Fog And Mist
43°F / 6°C 41°F / 5°C 93% 30.01 in
(1016 mb)
Calm - 1 1/4SM
05:53
Clear
Fog And Mist
45°F / 7°C 43°F / 6°C 93% 30.01 in
(1016 mb)
Calm - 6SM
05:35
Clear
Fog And Mist
43°F / 6°C 41°F / 5°C 93% 30.01 in
(1016 mb)
Calm - 3SM
05:31
Clear
Fog And Mist
43°F / 6°C 41°F / 5°C 93% 30.01 in
(1016 mb)
Calm - 1 3/4SM
05:22
Clear
Fog
45°F / 7°C 41°F / 5°C 87% 30.01 in
(1016 mb)
Calm - 1/2SM
05:13
Clear
Fog And Mist
45°F / 7°C 41°F / 5°C 87% 30.01 in
(1016 mb)
Calm - 1 1/2SM
04:53
Clear
Fog And Mist
45°F / 7°C 43°F / 6°C 93% 30.01 in
(1016 mb)
Calm - 4SM
04:50
Clear
Fog And Mist
45°F / 7°C 43°F / 6°C 93% 30.01 in
(1016 mb)
Calm - 2SM
04:40
Clear
Fog And Mist
45°F / 7°C 43°F / 6°C 93% 30.01 in
(1016 mb)
Calm - 3/4SM
04:35
Clear
Fog And Mist
45°F / 7°C 43°F / 6°C 93% 30.01 in
(1016 mb)
Calm - 1 3/4SM
04:26
Clear
Fog And Mist
45°F / 7°C 43°F / 6°C 93% 30.01 in
(1016 mb)
Calm - 6SM
04:19
Clear
Fog And Mist
45°F / 7°C 43°F / 6°C 93% 30.01 in
(1016 mb)
Calm - 2 1/2SM
04:00
Clear
Fog And Mist
45°F / 7°C 43°F / 6°C 93% 30.04 in
(1017 mb)
Calm - 1 1/4SM
03:53
Clear
45°F / 7°C 43°F / 6°C 93% 30.01 in
(1016 mb)
Calm - 7SM
03:49
Clear
Fog And Mist
45°F / 7°C 43°F / 6°C 93% 30.01 in
(1016 mb)
Calm - 3SM
03:38
Clear
Fog And Mist
45°F / 7°C 43°F / 6°C 93% 30.01 in
(1016 mb)
Calm - 1 1/4SM
03:30
Clear
Fog And Mist
45°F / 7°C 43°F / 6°C 93% 30.04 in
(1017 mb)
Calm - 4SM
03:19
Clear
Fog And Mist
45°F / 7°C 43°F / 6°C 93% 30.04 in
(1017 mb)
Calm - 1 1/2SM
02:53
Clear
Fog And Mist
45°F / 7°C 43°F / 6°C 93% 30.04 in
(1017 mb)
Calm - 5SM
02:51
Clear
Fog And Mist
45°F / 7°C 43°F / 6°C 93% 30.04 in
(1017 mb)
Calm - 1 3/4SM
02:44
Clear
Fog
45°F / 7°C 43°F / 6°C 93% 30.04 in
(1017 mb)
Calm - 1/2SM
02:34
Clear
Fog And Mist
45°F / 7°C 43°F / 6°C 93% 30.04 in
(1017 mb)
Calm - 1 1/2SM
02:23
Clear
Fog And Mist
45°F / 7°C 43°F / 6°C 93% 30.04 in
(1017 mb)
Calm - 2SM
02:13
Clear
Fog And Mist
45°F / 7°C 43°F / 6°C 93% 30.04 in
(1017 mb)
Calm - 3/4SM
02:09
Clear
Fog And Mist
46°F / 8°C 43°F / 6°C 87% 30.04 in
(1017 mb)
Calm - 1 3/4SM
01:53
Clear
46°F / 8°C 45°F / 7°C 93% 30.04 in
(1017 mb)
Calm - 10SM
00:53
Clear
46°F / 8°C 45°F / 7°C 93% 30.04 in
(1017 mb)
Calm - 10SM
Time Weather Temperature Dewpoint Humidity Pressure Winds Precip Visibility


Weather for websites

WeatherForYou.com, LLC is not responsible for any damages or problems caused by this service. Current weather conditions are obtained from the closest station including government and personal stations which may have varying degrees of accuracy. Weather forecasts are derived from the NOAA NDFD. Like all things, this site belongs to Jesus Christ... He just trusts us to maintain it. If you have any questions or comments email webmaster@weatherforyou.com

Copyright © 2016, WeatherForYou.com LLC. All rights reserved.